Time,TemperatureF,DewpointF,PressureIn,WindDirection,WindDirectionDegrees,WindSpeedMPH,WindSpeedGustMPH,Humidity,HourlyPrecipIn,Conditions,Clouds,dailyrainin,SoftwareType,DateUTC
2013-08-02 00:15:00,62.7,58.0,29.93,NNW,327,0.0,-999.0,85,-99.99,,,0.01,weatherlink.com 1.10,2013-08-02 05:15:00,
2013-08-02 00:30:00,62.4,58.0,29.93,NNW,327,0.0,-999.0,86,-99.99,,,0.01,weatherlink.com 1.10,2013-08-02 05:30:00,
2013-08-02 00:45:00,62.5,58.0,29.93,NNW,327,0.0,-999.0,86,-99.99,,,0.00,weatherlink.com 1.10,2013-08-02 05:45:00,
2013-08-02 01:00:00,62.3,58.0,29.92,NNW,327,0.0,-999.0,86,-99.99,,,0.00,weatherlink.com 1.10,2013-08-02 06:00:00,
2013-08-02 01:15:00,62.1,58.0,29.92,NNW,327,0.0,-999.0,86,-99.99,,,0.00,weatherlink.com 1.10,2013-08-02 06:15:00,
2013-08-02 01:30:00,61.9,57.0,29.92,NNW,327,0.0,-999.0,85,-99.99,,,0.00,weatherlink.com 1.10,2013-08-02 06:30:00,
2013-08-02 01:45:00,61.8,57.0,29.92,NNW,327,0.0,-999.0,85,-99.99,,,0.00,weatherlink.com 1.10,2013-08-02 06:45:00,
2013-08-02 02:00:00,61.6,57.0,29.92,NW,323,0.0,-999.0,85,-99.99,,,0.00,weatherlink.com 1.10,2013-08-02 07:00:00,
2013-08-02 02:14:00,61.4,57.0,29.91,NW,323,0.0,-999.0,85,-99.99,,,0.00,weatherlink.com 1.10,2013-08-02 07:14:00,
2013-08-02 02:30:00,61.5,57.0,29.91,West,267,0.0,-999.0,85,-99.99,,,0.00,weatherlink.com 1.10,2013-08-02 07:30:00,
2013-08-02 02:45:00,61.7,57.0,29.91,SSW,210,0.0,-999.0,84,-99.99,,,0.00,weatherlink.com 1.10,2013-08-02 07:45:00,
2013-08-02 03:00:00,61.9,57.0,29.91,South,171,0.0,-999.0,84,-99.99,,,0.00,weatherlink.com 1.10,2013-08-02 08:00:00,
2013-08-02 03:15:00,62.3,57.0,29.91,SSE,150,0.0,-999.0,83,-99.99,,,0.00,weatherlink.com 1.10,2013-08-02 08:15:00,
2013-08-02 03:30:00,62.5,57.0,29.91,South,171,0.0,-999.0,83,-99.99,,,0.00,weatherlink.com 1.10,2013-08-02 08:30:00,
2013-08-02 03:45:00,62.3,57.0,29.90,SSE,159,0.0,-999.0,84,-99.99,,,0.00,weatherlink.com 1.10,2013-08-02 08:45:00,
2013-08-02 04:00:00,62.3,57.0,29.91,SSE,160,0.0,-999.0,84,-99.99,,,0.00,weatherlink.com 1.10,2013-08-02 09:00:00,
2013-08-02 04:15:00,62.3,57.0,29.91,SSE,150,0.0,-999.0,84,-99.99,,,0.00,weatherlink.com 1.10,2013-08-02 09:15:00,
2013-08-02 04:30:00,62.5,57.0,29.90,SSE,155,0.0,-999.0,83,-99.99,,,0.00,weatherlink.com 1.10,2013-08-02 09:30:00,
2013-08-02 04:45:00,62.3,57.0,29.90,SSE,159,0.0,-999.0,84,-99.99,,,0.00,weatherlink.com 1.10,2013-08-02 09:45:00,
2013-08-02 05:00:00,61.9,57.0,29.90,SSE,163,0.0,-999.0,85,-99.99,,,0.00,weatherlink.com 1.10,2013-08-02 10:00:00,
2013-08-02 05:15:00,61.9,58.0,29.90,SSE,163,0.0,-999.0,86,-99.99,,,0.00,weatherlink.com 1.10,2013-08-02 10:15:00,
2013-08-02 05:30:00,62.0,58.0,29.90,SSW,197,0.0,-999.0,85,-99.99,,,0.00,weatherlink.com 1.10,2013-08-02 10:30:00,
2013-08-02 05:45:00,62.1,58.0,29.90,SSW,202,0.0,-999.0,85,-99.99,,,0.00,weatherlink.com 1.10,2013-08-02 10:45:00,
2013-08-02 06:00:00,62.2,58.0,29.90,South,176,0.0,-999.0,85,-99.99,,,0.00,weatherlink.com 1.10,2013-08-02 11:00:00,
2013-08-02 06:15:00,62.9,58.0,29.89,SSW,206,0.0,-999.0,84,-99.99,,,0.00,weatherlink.com 1.10,2013-08-02 11:15:00,
2013-08-02 06:30:00,63.2,58.0,29.89,SW,217,0.0,-999.0,82,-99.99,,,0.00,weatherlink.com 1.10,2013-08-02 11:30:00,
2013-08-02 06:45:00,64.1,58.0,29.89,SSW,202,0.0,-999.0,80,-99.99,,,0.00,weatherlink.com 1.10,2013-08-02 11:45:00,
2013-08-02 07:00:00,64.5,58.0,29.89,SW,222,0.0,-999.0,80,-99.99,,,0.00,weatherlink.com 1.10,2013-08-02 12:00:00,
2013-08-02 07:15:00,65.1,58.0,29.88,SW,226,3.0,-999.0,78,-99.99,,,0.00,weatherlink.com 1.10,2013-08-02 12:15:00,
2013-08-02 07:30:00,65.6,58.0,29.89,SSW,206,6.0,-999.0,77,-99.99,,,0.00,weatherlink.com 1.10,2013-08-02 12:30:00,
2013-08-02 07:45:00,66.1,59.0,29.89,South,190,6.0,-999.0,77,-99.99,,,0.00,weatherlink.com 1.10,2013-08-02 12:45:00,
2013-08-02 08:00:00,66.7,60.0,29.89,SSW,196,5.0,-999.0,78,-99.99,,,0.00,weatherlink.com 1.10,2013-08-02 13:00:00,
2013-08-02 08:16:00,67.4,61.0,29.89,SSW,202,6.0,-999.0,79,-99.99,,,0.00,weatherlink.com 1.10,2013-08-02 13:16:00,
2013-08-02 08:31:00,68.7,62.0,29.89,South,182,4.0,-999.0,79,-99.99,,,0.00,weatherlink.com 1.10,2013-08-02 13:31:00,
2013-08-02 08:46:00,70.1,63.0,29.89,SSW,207,3.0,-999.0,79,-99.99,,,0.00,weatherlink.com 1.10,2013-08-02 13:46:00,
2013-08-02 09:02:00,71.4,64.0,29.90,SSW,211,2.0,-999.0,77,-99.99,,,0.00,weatherlink.com 1.10,2013-08-02 14:02:00,
2013-08-02 09:16:00,72.6,65.0,29.90,SW,219,4.0,-999.0,76,-99.99,,,0.00,weatherlink.com 1.10,2013-08-02 14:16:00,
2013-08-02 09:31:00,73.4,65.0,29.90,West,263,7.0,-999.0,74,-99.99,,,0.00,weatherlink.com 1.10,2013-08-02 14:31:00,
2013-08-02 09:46:00,73.9,65.0,29.91,SSW,195,5.0,-999.0,74,-99.99,,,0.00,weatherlink.com 1.10,2013-08-02 14:46:00,
2013-08-02 10:01:00,74.6,66.0,29.90,South,190,3.0,-999.0,75,-99.99,,,0.00,weatherlink.com 1.10,2013-08-02 15:01:00,
2013-08-02 10:16:00,75.7,67.0,29.90,SSW,198,2.0,-999.0,74,-99.99,,,0.00,weatherlink.com 1.10,2013-08-02 15:16:00,
2013-08-02 10:31:00,76.8,67.0,29.89,SSW,203,5.0,-999.0,72,-99.99,,,0.00,weatherlink.com 1.10,2013-08-02 15:31:00,
2013-08-02 10:46:00,78.4,68.0,29.89,SSE,149,0.0,-999.0,71,-99.99,,,0.00,weatherlink.com 1.10,2013-08-02 15:46:00,
2013-08-02 11:02:00,79.5,68.0,29.89,SSW,211,0.0,-999.0,68,-99.99,,,0.00,weatherlink.com 1.10,2013-08-02 16:02:00,
2013-08-02 11:17:00,80.2,69.0,29.89,SW,232,3.0,-999.0,68,-99.99,,,0.00,weatherlink.com 1.10,2013-08-02 16:17:00,
2013-08-02 11:32:00,80.8,69.0,29.89,SSW,213,11.0,-999.0,67,-99.99,,,0.00,weatherlink.com 1.10,2013-08-02 16:32:00,
2013-08-02 11:47:00,81.4,69.0,29.88,SSW,205,10.0,-999.0,66,-99.99,,,0.00,weatherlink.com 1.10,2013-08-02 16:47:00,
2013-08-02 12:02:00,81.4,69.0,29.89,SW,218,0.0,-999.0,66,-99.99,,,0.00,weatherlink.com 1.10,2013-08-02 17:02:00,
2013-08-02 12:17:00,82.2,70.0,29.89,WSW,245,10.0,-999.0,66,-99.99,,,0.00,weatherlink.com 1.10,2013-08-02 17:17:00,
2013-08-02 12:32:00,82.8,71.0,29.88,South,184,1.0,-999.0,67,-99.99,,,0.00,weatherlink.com 1.10,2013-08-02 17:32:00,
2013-08-02 12:47:00,83.0,70.0,29.89,SW,225,7.0,-999.0,66,-99.99,,,0.00,weatherlink.com 1.10,2013-08-02 17:47:00,
2013-08-02 13:02:00,82.0,70.0,29.89,SSW,209,0.0,-999.0,66,-99.99,,,0.00,weatherlink.com 1.10,2013-08-02 18:02:00,
2013-08-02 13:17:00,81.5,70.0,29.88,WSW,249,2.0,-999.0,68,-99.99,,,0.00,weatherlink.com 1.10,2013-08-02 18:17:00,
2013-08-02 13:32:00,80.4,70.0,29.88,SSW,213,4.0,-999.0,70,-99.99,,,0.00,weatherlink.com 1.10,2013-08-02 18:32:00,
2013-08-02 13:47:00,80.3,70.0,29.88,SSW,212,16.0,-999.0,71,-99.99,,,0.00,weatherlink.com 1.10,2013-08-02 18:47:00,
2013-08-02 14:02:00,80.1,71.0,29.88,WSW,245,6.0,-999.0,73,-99.99,,,0.00,weatherlink.com 1.10,2013-08-02 19:02:00,
2013-08-02 14:17:00,80.0,70.0,29.89,WSW,253,0.0,-999.0,72,-99.99,,,0.00,weatherlink.com 1.10,2013-08-02 19:17:00,
2013-08-02 14:32:00,80.2,71.0,29.88,WSW,240,6.0,-999.0,73,-99.99,,,0.00,weatherlink.com 1.10,2013-08-02 19:32:00,
2013-08-02 14:47:00,79.8,71.0,29.88,SW,227,8.0,-999.0,74,-99.99,,,0.00,weatherlink.com 1.10,2013-08-02 19:47:00,
2013-08-02 15:02:00,78.9,70.0,29.88,SSW,213,5.0,-999.0,75,-99.99,,,0.00,weatherlink.com 1.10,2013-08-02 20:02:00,
2013-08-02 15:17:00,78.2,70.0,29.87,SSW,202,3.0,-999.0,76,-99.99,,,0.00,weatherlink.com 1.10,2013-08-02 20:17:00,
2013-08-02 15:32:00,78.0,70.0,29.86,SSW,211,10.0,-999.0,76,-99.99,,,0.00,weatherlink.com 1.10,2013-08-02 20:32:00,
2013-08-02 15:47:00,78.8,70.0,29.86,SSW,205,5.0,-999.0,75,-99.99,,,0.00,weatherlink.com 1.10,2013-08-02 20:47:00,
2013-08-02 16:02:00,78.3,70.0,29.86,WSW,248,0.0,-999.0,76,-99.99,,,0.00,weatherlink.com 1.10,2013-08-02 21:02:00,
2013-08-02 16:17:00,77.8,70.0,29.86,SSW,207,3.0,-999.0,77,-99.99,,,0.00,weatherlink.com 1.10,2013-08-02 21:17:00,
2013-08-02 16:32:00,77.5,70.0,29.86,SW,217,6.0,-999.0,77,-99.99,,,0.00,weatherlink.com 1.10,2013-08-02 21:32:00,
2013-08-02 16:47:00,77.5,70.0,29.86,SW,225,13.0,-999.0,78,-99.99,,,0.00,weatherlink.com 1.10,2013-08-02 21:47:00,
2013-08-02 17:02:00,78.0,70.0,29.86,SW,225,6.0,-999.0,77,-99.99,,,0.00,weatherlink.com 1.10,2013-08-02 22:02:00,
2013-08-02 17:17:00,78.1,70.0,29.86,SSW,194,4.0,-999.0,76,-99.99,,,0.00,weatherlink.com 1.10,2013-08-02 22:17:00,
2013-08-02 17:32:00,78.5,71.0,29.86,SW,214,18.0,-999.0,77,-99.99,,,0.00,weatherlink.com 1.10,2013-08-02 22:32:00,
2013-08-02 17:47:00,78.1,70.0,29.86,SSW,213,3.0,-999.0,77,-99.99,,,0.00,weatherlink.com 1.10,2013-08-02 22:47:00,
2013-08-02 18:02:00,77.7,71.0,29.86,South,175,2.0,-999.0,79,-99.99,,,0.00,weatherlink.com 1.10,2013-08-02 23:02:00,
2013-08-02 18:17:00,77.6,71.0,29.86,SSW,197,2.0,-999.0,80,-99.99,,,0.00,weatherlink.com 1.10,2013-08-02 23:17:00,
2013-08-02 18:32:00,77.4,71.0,29.86,WSW,256,11.0,-999.0,80,-99.99,,,0.00,weatherlink.com 1.10,2013-08-02 23:32:00,
2013-08-02 18:47:00,77.1,71.0,29.87,SSW,197,3.0,-999.0,82,-99.99,,,0.00,weatherlink.com 1.10,2013-08-02 23:47:00,
2013-08-02 19:03:00,77.0,71.0,29.87,SW,215,0.0,-999.0,82,-99.99,,,0.00,weatherlink.com 1.10,2013-08-03 00:03:00,
2013-08-02 19:18:00,76.6,71.0,29.86,WSW,244,0.0,-999.0,82,-99.99,,,0.00,weatherlink.com 1.10,2013-08-03 00:18:00,
2013-08-02 19:33:00,76.5,71.0,29.86,SW,233,1.0,-999.0,82,-99.99,,,0.00,weatherlink.com 1.10,2013-08-03 00:33:00,
2013-08-02 19:48:00,76.1,70.0,29.86,SW,221,0.0,-999.0,82,-99.99,,,0.00,weatherlink.com 1.10,2013-08-03 00:48:00,
2013-08-02 20:03:00,75.8,70.0,29.86,SSW,196,0.0,-999.0,83,-99.99,,,0.00,weatherlink.com 1.10,2013-08-03 01:03:00,
2013-08-02 20:18:00,75.4,70.0,29.86,SSW,202,6.0,-999.0,84,-99.99,,,0.00,weatherlink.com 1.10,2013-08-03 01:18:00,
2013-08-02 20:33:00,75.0,70.0,29.86,SSW,192,0.0,-999.0,84,-99.99,,,0.00,weatherlink.com 1.10,2013-08-03 01:33:00,
2013-08-02 20:48:00,74.4,70.0,29.86,SSW,205,0.0,-999.0,85,-99.99,,,0.00,weatherlink.com 1.10,2013-08-03 01:48:00,
2013-08-02 21:03:00,74.0,70.0,29.86,South,188,0.0,-999.0,87,-99.99,,,0.00,weatherlink.com 1.10,2013-08-03 02:03:00,
2013-08-02 21:18:00,73.5,70.0,29.87,SSW,200,0.0,-999.0,87,-99.99,,,0.00,weatherlink.com 1.10,2013-08-03 02:18:00,
2013-08-02 21:33:00,73.3,70.0,29.88,WSW,240,0.0,-999.0,88,-99.99,,,0.00,weatherlink.com 1.10,2013-08-03 02:33:00,
2013-08-02 21:48:00,73.0,70.0,29.88,SW,234,0.0,-999.0,89,-99.99,,,0.00,weatherlink.com 1.10,2013-08-03 02:48:00,
2013-08-02 22:03:00,72.8,70.0,29.88,SW,234,0.0,-999.0,90,-99.99,,,0.00,weatherlink.com 1.10,2013-08-03 03:03:00,
2013-08-02 22:18:00,73.0,70.0,29.89,WSW,253,0.0,-999.0,90,-99.99,,,0.00,weatherlink.com 1.10,2013-08-03 03:18:00,
2013-08-02 22:33:00,73.1,70.0,29.90,West,271,0.0,-999.0,91,-99.99,,,0.01,weatherlink.com 1.10,2013-08-03 03:33:00,
2013-08-02 22:48:00,72.8,70.0,29.91,NW,310,1.0,-999.0,92,-99.99,,,0.03,weatherlink.com 1.10,2013-08-03 03:48:00,
2013-08-02 23:03:00,69.7,67.0,29.91,NNE,28,0.0,-999.0,90,-99.99,,,0.10,weatherlink.com 1.10,2013-08-03 04:03:00,
2013-08-02 23:18:00,67.9,66.0,29.91,North,351,0.0,-999.0,92,-99.99,,,0.24,weatherlink.com 1.10,2013-08-03 04:18:00,
2013-08-02 23:33:00,67.6,66.0,29.91,North,5,0.0,-999.0,94,-99.99,,,0.31,weatherlink.com 1.10,2013-08-03 04:33:00,
2013-08-02 23:48:00,67.6,66.0,29.92,NW,318,0.0,-999.0,94,-99.99,,,0.33,weatherlink.com 1.10,2013-08-03 04:48:00,